Flag for Greece Weather past 2 weeks in Glyfada, Greece

Now
77 °F

Clear.


Feels Like: 78 °F
Forecast: 79 / 88 °F
Wind: 8 mph from North

Location: Eleftherios Venizelos International Airport

Current Time: Aug 29, 2015 at 6:23:43 AM

Latest Report: Aug 29, 2015 at 5:50 AM


Visibility: 10 mi

Pressure: 30.04 "Hg

Humidity: 32%

Dew point: 45 °F

Location of GlyfadaLocation

Historic Weather in Glyfada — Graph

°F

Glyfada temperature yesterday

Maximum temperature yesterday: 90 °F (at 3:50 PM)
Minimum temperature yesterday: 75 °F (at 2:50 AM)
Average temperature yesterday: 81 °F

Past Weeks' High & Low Weather Summary

 TemperatureHumidityPressure
High97 °F (Aug 17, 2:50 PM)83% (Aug 16, 4:50 AM)30.07 "Hg (Aug 16, 4:50 AM)
Low68 °F (Aug 18, 5:50 AM)16% (Aug 28, 8:50 PM)29.77 "Hg (Aug 15, 4:50 PM)
Average81 °F48%29.91 "Hg
* Reported Aug 14 4:20 AM — Aug 29 4:50 AM, Glyfada, Weather by CustomWeather, © 2015

Note: Actual official high and low records may vary slightly from our data, if they occured in-between our weather recording intervals... More about our weather records

Advertising

Glyfada weather history for previous 24 hours

 ConditionsComfort  
Time TempWeatherWind HumidityBarometerVisibility
4:50 AM
Sat, Aug 29
79 °FClear.12 mph30%30.04 "Hg10 mi
4:20 AM79 °FClear.14 mph32%30.04 "Hg10 mi
3:50 AM79 °FClear.14 mph32%30.04 "Hg10 mi
3:20 AM79 °FClear.15 mph32%30.04 "Hg10 mi
2:50 AM79 °FClear.16 mph32%30.07 "Hg10 mi
2:20 AM79 °FClear.15 mph32%30.07 "Hg10 mi
1:50 AM79 °FClear.13 mph32%30.07 "Hg10 mi
1:20 AM79 °FClear.12 mph32%30.07 "Hg10 mi
12:50 AM79 °FClear.10 mph32%30.07 "Hg10 mi
11:50 PM
Fri, Aug 28
79 °FPassing clouds.5 mph26%30.07 "HgN/A
11:20 PM79 °FClear.8 mph24%30.07 "Hg10 mi
10:50 PM81 °FClear.5 mph20%30.07 "Hg10 mi
10:20 PM79 °FClear.6 mph18%30.07 "Hg10 mi
9:50 PM79 °FClear.6 mph17%30.07 "Hg10 mi
9:20 PM79 °FClear.7 mph17%30.07 "Hg10 mi
8:50 PM81 °FPassing clouds.5 mph16%30.07 "HgN/A
8:20 PM81 °FSunny.8 mph17%30.07 "Hg10 mi
7:50 PM82 °FSunny.9 mph19%30.07 "Hg10 mi
7:20 PM84 °FSunny.13 mph19%30.04 "Hg10 mi
6:50 PM84 °FSunny.18 mph19%30.04 "Hg10 mi
6:20 PM86 °FSunny.17 mph17%30.04 "Hg10 mi
5:50 PM86 °FSunny.16 mph18%30.04 "Hg10 mi
5:20 PM88 °FSunny.23 mph19%30.04 "Hg10 mi
4:50 PM88 °FSunny.24 mph21%30.04 "Hg10 mi
4:20 PM88 °FSunny.23 mph22%30.07 "Hg10 mi
3:50 PM90 °FPassing clouds.20 mph18%30.07 "HgN/A
3:20 PM88 °FSunny.16 mph21%30.07 "Hg10 mi
2:50 PM88 °FSunny.21 mph24%30.07 "Hg10 mi
2:20 PM86 °FSunny.23 mph31%30.07 "Hg10 mi
1:50 PM84 °FSunny.22 mph35%30.07 "Hg10 mi
1:20 PM84 °FSunny.22 mph33%30.07 "Hg10 mi
12:50 PM84 °FSunny.23 mph35%30.07 "Hg10 mi
12:20 PM84 °FSunny.23 mph35%30.07 "Hg10 mi
11:50 AM82 °FSunny.23 mph37%30.07 "Hg10 mi
11:20 AM82 °FSunny.21 mph40%30.07 "Hg10 mi
10:50 AM84 °FSunny.21 mph27%30.07 "Hg10 mi
10:20 AM82 °FSunny.21 mph30%30.07 "Hg10 mi
9:50 AM82 °FSunny.14 mph30%30.07 "Hg10 mi
9:20 AM81 °FPassing clouds.9 mph37%30.07 "HgN/A
8:50 AM79 °FPassing clouds.12 mph42%30.04 "HgN/A
8:20 AM77 °FSunny.9 mph42%30.04 "Hg10 mi
7:50 AM75 °FSunny.9 mph44%30.04 "Hg10 mi
7:20 AM75 °FClear.8 mph41%30.04 "Hg10 mi
6:50 AM75 °FClear.8 mph44%30.04 "Hg10 mi
Weather by CustomWeather, © 2015

See weather overviewHow to use our weather pages